Powrót do katalogu

STARLINK-34524

AktywnyŁącznośćVLEO
NORAD 64431·PAYLOAD·🇺🇸 United States

Wystrzelony Jun 17, 2025 z Vandenberg Space Force Base

Loading…

Następne Przeloty (najbliższe 24 godziny)

TLE

ŚwieżeSource: CelesTrak SupGP

Epoka: Sep 15, 2026, 03:00 UTC

1 64431C 25129V   26258.12548611  .00043475  00000+0  14738-2 0  2583
2 64431  69.9996 315.0613 0003296 267.3866 217.8612 15.30395721    19

Śledź STARLINK-34524 w czasie rzeczywistym z AllMySat

Download on the App Store